,,,PA_Meas_PMT16A,,PR_Meas_QMR101_102,,RH_Meas_QMH101,,SR_Meas_QMS101,,TA_Meas_QMH101,,GenWind,,GenWind,
date,time,status,PA,status,PR,status,RH,status,SR,status,TA,status,DirAvg,status,SpdAvg,
2010-10-21, 00:00:04,VALID,1005.6,VALID,0,INVALID,162.228,VALID,5.83265,VALID,23.7407,VALID,122,VALID,1.01055,
2010-10-21, 00:01:04,VALID,1005.64,VALID,0,INVALID,162.152,VALID,6.2349,VALID,23.7389,VALID,120,VALID,0.76875,
2010-10-21, 00:02:04,VALID,1005.68,VALID,0,INVALID,162.045,VALID,6.53659,VALID,23.7601,VALID,114,VALID,1.39258,
2010-10-21, 00:03:04,VALID,1005.71,VALID,0,INVALID,161.915,VALID,6.73772,VALID,23.7796,VALID,76,VALID,0.551172,
2010-10-21, 00:04:04,VALID,1005.72,VALID,0,INVALID,161.847,VALID,7.03941,VALID,23.7601,VALID,67,VALID,0.896875,
2010-10-21, 00:05:04,VALID,1005.74,VALID,0,INVALID,161.77,VALID,7.34109,VALID,23.7601,VALID,135,VALID,0.748828,
2010-10-21, 00:06:04,VALID,1005.78,VALID,0,INVALID,161.648,VALID,7.64278,VALID,23.7407,VALID,104,VALID,0.546094,
2010-10-21, 00:07:04,VALID,1005.76,VALID,0,INVALID,161.564,VALID,8.1456,VALID,23.7389,VALID,118,VALID,1.07305,
2010-10-21, 00:08:04,VALID,1005.76,VALID,0,INVALID,161.503,VALID,8.54785,VALID,23.7601,VALID,114,VALID,0.827344,
2010-10-21, 00:09:04,VALID,1005.79,VALID,0.5,INVALID,161.366,VALID,8.9501,VALID,23.7407,VALID,117,VALID,0.399219,
2010-10-21, 00:10:04,VALID,1005.83,VALID,0,INVALID,161.236,VALID,9.35235,VALID,23.7796,VALID,118,VALID,0.656641,
2010-10-21, 00:11:04,VALID,1005.82,VALID,0,INVALID,161.145,VALID,9.85517,VALID,23.7601,VALID,119,VALID,0.738281,
2010-10-21, 00:12:04,VALID,1005.87,VALID,0,INVALID,161.076,VALID,10.2574,VALID,23.7389,VALID,100,VALID,0.767578,
2010-10-21, 00:13:04,VALID,1005.88,VALID,0,INVALID,160.985,VALID,10.6597,VALID,23.7407,VALID,98,VALID,0.738281,
2010-10-21, 00:14:04,VALID,1005.88,VALID,0,INVALID,160.946,VALID,11.1625,VALID,23.7601,VALID,98,VALID,0.562109,
2010-10-21, 00:15:04,VALID,1005.93,VALID,0,INVALID,160.878,VALID,11.5647,VALID,23.7194,VALID,97,VALID,0.434375,
2010-10-21, 00:16:04,VALID,1005.93,VALID,0,INVALID,160.771,VALID,12.0676,VALID,23.7389,VALID,97,VALID,0.723828,
2010-10-21, 00:17:04,VALID,1005.92,VALID,0,INVALID,160.71,VALID,12.5704,VALID,23.7601,VALID,103,VALID,0.902734,
2010-10-21, 00:18:04,VALID,1005.97,VALID,0,INVALID,160.535,VALID,13.0732,VALID,23.7194,VALID,106,VALID,0.487891,
2010-10-21, 00:19:04,VALID,1005.95,VALID,0,INVALID,160.466,VALID,13.4754,VALID,23.7389,VALID,103,VALID,0.887891,
2010-10-21, 00:20:04,VALID,1005.97,VALID,0,INVALID,160.435,VALID,13.9782,VALID,23.7407,VALID,103,VALID,0.297656,
2010-10-21, 00:21:04,VALID,1005.99,VALID,0,INVALID,160.26,VALID,14.4811,VALID,23.7194,VALID,103,VALID,0.302734,
2010-10-21, 00:22:04,VALID,1006.02,VALID,0,INVALID,160.176,VALID,14.9839,VALID,23.7601,VALID,103,VALID,0.407813,
2010-10-21, 00:23:04,VALID,1006.03,VALID,0.5,INVALID,160.039,VALID,15.4867,VALID,23.7601,VALID,103,VALID,0.322656,
2010-10-21, 00:24:04,VALID,1006.06,VALID,0,INVALID,159.878,VALID,15.9895,VALID,23.7601,VALID,103,VALID,0.530859,
2010-10-21, 00:25:04,VALID,1006.08,VALID,0,INVALID,159.848,VALID,16.5929,VALID,23.7601,VALID,103,VALID,0.410156,
2010-10-21, 00:26:04,VALID,1006.14,VALID,0,INVALID,159.672,VALID,17.0957,VALID,23.7796,VALID,88,VALID,0.405078,
2010-10-21, 00:27:04,VALID,1006.15,VALID,0,INVALID,159.634,VALID,17.6991,VALID,23.7796,VALID,84,VALID,0.262109,
2010-10-21, 00:28:04,VALID,1006.15,VALID,0,INVALID,159.65,VALID,18.3025,VALID,23.7601,VALID,92,VALID,0.542969,
2010-10-21, 00:29:04,VALID,1006.17,VALID,0,INVALID,159.68,VALID,19.0064,VALID,23.7194,VALID,106,VALID,0.743359,
2010-10-21, 00:30:04,VALID,1006.15,VALID,0,INVALID,159.581,VALID,19.8109,VALID,23.7389,VALID,104,VALID,0.853516,
2010-10-21, 00:31:04,VALID,1006.22,VALID,0,INVALID,159.512,VALID,20.6154,VALID,23.7407,VALID,110,VALID,0.961328,
2010-10-21, 00:32:04,VALID,1006.24,VALID,0,INVALID,159.451,VALID,21.3193,VALID,23.7601,VALID,119,VALID,0.991797,
2010-10-21, 00:33:04,VALID,1006.27,VALID,0,INVALID,159.413,VALID,22.325,VALID,23.7601,VALID,109,VALID,0.916406,
2010-10-21, 00:34:04,VALID,1006.27,VALID,0,INVALID,159.383,VALID,23.3306,VALID,23.7583,VALID,122,VALID,0.625,
2010-10-21, 00:35:04,VALID,1006.29,VALID,0,INVALID,159.268,VALID,24.2357,VALID,23.7796,VALID,117,VALID,0.742969,
2010-10-21, 00:36:04,VALID,1006.31,VALID,0.5,INVALID,159.215,VALID,25.2413,VALID,23.7991,VALID,122,VALID,0.703906,
2010-10-21, 00:37:04,VALID,1006.32,VALID,0,INVALID,159.016,VALID,26.0458,VALID,23.838,VALID,110,VALID,0.580078,
2010-10-21, 00:38:04,VALID,1006.34,VALID,0,INVALID,159.131,VALID,26.7497,VALID,23.7991,VALID,105,VALID,0.762891,
2010-10-21, 00:39:04,VALID,1006.35,VALID,0,INVALID,159.108,VALID,27.4537,VALID,23.8167,VALID,117,VALID,0.789453,
2010-10-21, 00:40:04,VALID,1006.35,VALID,0,INVALID,159.039,VALID,28.1576,VALID,23.7973,VALID,117,VALID,0.766406,
2010-10-21, 00:41:04,VALID,1006.39,VALID,0,INVALID,158.917,VALID,28.8616,VALID,23.8362,VALID,102,VALID,0.608594,
2010-10-21, 00:42:04,VALID,1006.4,VALID,0,INVALID,158.803,VALID,29.5655,VALID,23.8769,VALID,106,VALID,0.627734,
2010-10-21, 00:43:04,VALID,1006.4,VALID,0,INVALID,159.047,VALID,30.37,VALID,23.8362,VALID,129,VALID,1.02109,
2010-10-21, 00:44:04,VALID,1006.43,VALID,0,INVALID,159.108,VALID,31.3756,VALID,23.8556,VALID,120,VALID,0.958594,
2010-10-21, 00:45:04,VALID,1006.41,VALID,0,INVALID,159.047,VALID,32.4818,VALID,23.8769,VALID,115,VALID,0.859766,
2010-10-21, 00:46:04,VALID,1006.46,VALID,0,INVALID,159.047,VALID,33.7892,VALID,23.8751,VALID,124,VALID,1.0543,
2010-10-21, 00:47:04,VALID,1006.47,VALID,0,INVALID,158.925,VALID,35.4987,VALID,23.914,VALID,124,VALID,0.876953,
2010-10-21, 00:48:04,VALID,1006.47,VALID,0,INVALID,158.932,VALID,37.4094,VALID,23.914,VALID,106,VALID,0.738672,
2010-10-21, 00:49:04,VALID,1006.5,VALID,0,INVALID,159.131,VALID,39.2195,VALID,23.8751,VALID,110,VALID,1.18945,
2010-10-21, 00:50:04,VALID,1006.47,VALID,0,INVALID,159.138,VALID,41.4319,VALID,23.9159,VALID,120,VALID,0.824609,
2010-10-21, 00:51:04,VALID,1006.46,VALID,0,INVALID,159.169,VALID,43.7449,VALID,23.9159,VALID,102,VALID,1.14414,
2010-10-21, 00:52:04,VALID,1006.47,VALID,0,INVALID,159.062,VALID,46.3595,VALID,23.9548,VALID,101,VALID,0.59375,
2010-10-21, 00:53:04,VALID,1006.52,VALID,0,INVALID,159.07,VALID,49.3764,VALID,23.9742,VALID,123,VALID,0.962109,
2010-10-21, 00:54:04,VALID,1006.55,VALID,0,INVALID,159.161,VALID,52.7955,VALID,23.9742,VALID,98,VALID,0.815625,
2010-10-21, 00:55:04,VALID,1006.57,VALID,0,INVALID,159.131,VALID,56.0136,VALID,23.9937,VALID,108,VALID,0.972656,
2010-10-21, 00:56:04,VALID,1006.57,VALID,0,INVALID,159.154,VALID,59.3321,VALID,24.0132,VALID,107,VALID,0.817969,
2010-10-21, 00:57:04,VALID,1006.6,VALID,0,INVALID,159.253,VALID,62.9524,VALID,24.0114,VALID,95,VALID,0.686719,
2010-10-21, 00:58:04,VALID,1006.64,VALID,0,INVALID,159.291,VALID,66.6732,VALID,24.0521,VALID,115,VALID,0.688281,
2010-10-21, 00:59:04,VALID,1006.67,VALID,0,INVALID,159.192,VALID,70.1929,VALID,24.0716,VALID,113,VALID,0.769531,
2010-10-21, 01:00:04,VALID,1006.69,VALID,0,INVALID,159.253,VALID,73.7126,VALID,24.1105,VALID,117,VALID,0.816016,
2010-10-21, 01:01:04,VALID,1006.47,VALID,0,INVALID,159.352,VALID,77.2323,VALID,24.1105,VALID,110,VALID,0.587891,
2010-10-21, 01:02:04,VALID,1006.73,VALID,0,INVALID,159.329,VALID,80.3498,VALID,24.1494,VALID,125,VALID,0.700391,
2010-10-21, 01:03:04,VALID,1006.76,VALID,0,INVALID,159.573,VALID,82.1599,VALID,24.1494,VALID,112,VALID,0.865625,
2010-10-21, 01:04:04,VALID,1006.82,VALID,0,INVALID,159.505,VALID,79.6459,VALID,24.1884,VALID,107,VALID,0.584375,
2010-10-21, 01:05:04,VALID,1006.83,VALID,0,INVALID,159.528,VALID,85.6796,VALID,24.2273,VALID,108,VALID,0.833203,
2010-10-21, 01:06:04,VALID,1006.86,VALID,0,INVALID,159.581,VALID,95.2331,VALID,24.307,VALID,90,VALID,0.785156,
2010-10-21, 01:07:04,VALID,1006.84,VALID,0,INVALID,159.749,VALID,102.273,VALID,24.2662,VALID,96,VALID,0.750391,
2010-10-21, 01:08:04,VALID,1006.86,VALID,0,INVALID,159.833,VALID,108.507,VALID,24.3052,VALID,119,VALID,0.75,
2010-10-21, 01:09:04,VALID,1006.85,VALID,0,INVALID,160.023,VALID,113.334,VALID,24.3459,VALID,126,VALID,1.04805,
2010-10-21, 01:10:04,VALID,1006.85,VALID,0,INVALID,160.016,VALID,116.251,VALID,24.3636,VALID,114,VALID,0.773828,
2010-10-21, 01:11:04,VALID,1006.85,VALID,0,INVALID,159.764,VALID,118.664,VALID,24.4628,VALID,113,VALID,0.696094,
2010-10-21, 01:12:04,VALID,1006.84,VALID,0,INVALID,159.955,VALID,125.201,VALID,24.4628,VALID,104,VALID,0.921875,
2010-10-21, 01:13:04,VALID,1006.83,VALID,0,INVALID,160.199,VALID,130.43,VALID,24.4822,VALID,121,VALID,1.08477,
2010-10-21, 01:14:04,VALID,1006.84,VALID,0,INVALID,160.466,VALID,132.743,VALID,24.4822,VALID,122,VALID,0.885938,
2010-10-21, 01:15:04,VALID,1006.84,VALID,0,INVALID,160.519,VALID,134.453,VALID,24.4804,VALID,117,VALID,0.956641,
2010-10-21, 01:16:04,VALID,1006.85,VALID,0,INVALID,160.672,VALID,136.665,VALID,24.4804,VALID,97,VALID,0.807031,
2010-10-21, 01:17:04,VALID,1006.84,VALID,0,INVALID,160.573,VALID,142.196,VALID,24.5582,VALID,98,VALID,1.28789,
2010-10-21, 01:18:04,VALID,1006.86,VALID,0,INVALID,160.786,VALID,145.816,VALID,24.5582,VALID,105,VALID,1.16055,
2010-10-21, 01:19:04,VALID,1006.9,VALID,0,INVALID,160.634,VALID,148.934,VALID,24.675,VALID,109,VALID,0.939453,
2010-10-21, 01:20:04,VALID,1006.88,VALID,0,INVALID,160.664,VALID,149.839,VALID,24.7353,VALID,89,VALID,0.712891,
2010-10-21, 01:21:04,VALID,1006.93,VALID,0,INVALID,160.954,VALID,150.04,VALID,24.7353,VALID,93,VALID,1.125,
2010-10-21, 01:22:04,VALID,1006.95,VALID,0,INVALID,161.297,VALID,149.437,VALID,24.7335,VALID,132,VALID,0.860156,
2010-10-21, 01:23:04,VALID,1006.98,VALID,0,INVALID,161.427,VALID,147.928,VALID,24.7919,VALID,100,VALID,1.04961,
2010-10-21, 01:24:04,VALID,1006.98,VALID,0,INVALID,161.526,VALID,145.917,VALID,24.8911,VALID,128,VALID,0.878125,
2010-10-21, 01:25:04,VALID,1007,VALID,0,INVALID,162.48,VALID,140.989,VALID,24.8522,VALID,143,VALID,1.77305,
2010-10-21, 01:26:04,VALID,1006.99,VALID,0,INVALID,163.159,VALID,138.676,VALID,24.8716,VALID,142,VALID,1.47734,
2010-10-21, 01:27:04,VALID,1007.05,VALID,0,INVALID,163.517,VALID,141.693,VALID,24.9087,VALID,122,VALID,1.30273,
2010-10-21, 01:28:04,VALID,1007.06,VALID,0,INVALID,163.525,VALID,146.822,VALID,24.9885,VALID,152,VALID,1.04023,
2010-10-21, 01:29:04,VALID,1007.04,VALID,0,INVALID,163.54,VALID,147.023,VALID,24.9866,VALID,142,VALID,0.939844,
2010-10-21, 01:30:04,VALID,1007.08,VALID,0,INVALID,163.556,VALID,150.643,VALID,25.045,VALID,144,VALID,0.644531,
2010-10-21, 01:31:04,VALID,1007.09,VALID,0,INVALID,163.571,VALID,160.599,VALID,25.1442,VALID,154,VALID,1.01016,
2010-10-21, 01:32:04,VALID,1007.11,VALID,0,INVALID,163.563,VALID,167.337,VALID,25.1618,VALID,120,VALID,0.935156,
2010-10-21, 01:33:04,VALID,1007.12,VALID,0,INVALID,163.556,VALID,169.449,VALID,25.1637,VALID,150,VALID,1.2957,
2010-10-21, 01:34:04,VALID,1007.19,VALID,0,INVALID,163.578,VALID,175.885,VALID,25.2221,VALID,113,VALID,0.525781,
2010-10-21, 01:35:04,VALID,1007.18,VALID,0,INVALID,163.54,VALID,184.734,VALID,25.2611,VALID,81,VALID,0.783203,
2010-10-21, 01:36:04,VALID,1007.18,VALID,0,INVALID,163.54,VALID,193.684,VALID,25.3604,VALID,121,VALID,0.640625,
2010-10-21, 01:37:04,VALID,1007.22,VALID,0,INVALID,163.533,VALID,209.171,VALID,25.3993,VALID,126,VALID,0.727344,
2010-10-21, 01:38:04,VALID,1007.19,VALID,0,INVALID,163.548,VALID,221.54,VALID,25.3779,VALID,146,VALID,0.735156,
2010-10-21, 01:39:04,VALID,1007.23,VALID,0,INVALID,163.556,VALID,239.44,VALID,25.3974,VALID,148,VALID,0.810156,
2010-10-21, 01:40:04,VALID,1007.25,VALID,0,INVALID,163.556,VALID,253.519,VALID,25.3955,VALID,77,VALID,0.453516,
2010-10-21, 01:41:04,VALID,1007.26,VALID,0,INVALID,163.54,VALID,265.687,VALID,25.4558,VALID,126,VALID,1.49805,
2010-10-21, 01:42:04,VALID,1007.27,VALID,0,INVALID,163.525,VALID,272.727,VALID,25.5532,VALID,134,VALID,0.763281,
2010-10-21, 01:43:04,VALID,1007.29,VALID,0,INVALID,163.525,VALID,282.884,VALID,25.5921,VALID,115,VALID,1.40234,
2010-10-21, 01:44:04,VALID,1007.31,VALID,0,INVALID,163.495,VALID,289.923,VALID,25.67,VALID,119,VALID,0.814844,
2010-10-21, 01:45:04,VALID,1007.3,VALID,0,INVALID,163.533,VALID,296.057,VALID,25.7285,VALID,118,VALID,0.966797,
2010-10-21, 01:46:04,VALID,1007.31,VALID,0,INVALID,163.525,VALID,300.281,VALID,25.748,VALID,134,VALID,1.4,
2010-10-21, 01:47:04,VALID,1007.32,VALID,0,INVALID,163.525,VALID,303.398,VALID,25.7674,VALID,122,VALID,0.880078,
2010-10-21, 01:48:04,VALID,1007.35,VALID,0,INVALID,163.517,VALID,302.594,VALID,25.8648,VALID,128,VALID,0.645312,
2010-10-21, 01:49:04,VALID,1007.34,VALID,0,INVALID,163.51,VALID,301.991,VALID,25.9252,VALID,131,VALID,0.466016,
2010-10-21, 01:50:04,VALID,1007.34,VALID,0,INVALID,163.495,VALID,299.175,VALID,25.9057,VALID,147,VALID,0.804688,
2010-10-21, 01:51:04,VALID,1007.34,VALID,0,INVALID,131.217,VALID,295.454,VALID,25.9232,VALID,158,VALID,0.684375,
2010-10-21, 01:52:04,VALID,1007.33,VALID,0,INVALID,154.538,VALID,293.845,VALID,25.9797,VALID,138,VALID,0.652734,
2010-10-21, 01:53:04,VALID,1007.31,VALID,0,INVALID,161.725,VALID,291.23,VALID,26.0771,VALID,138,VALID,0.144531,
2010-10-21, 01:54:04,VALID,1007.3,VALID,0,INVALID,162.266,VALID,288.716,VALID,26.116,VALID,139,VALID,0.640625,
2010-10-21, 01:55:04,VALID,1007.32,VALID,0,INVALID,118.278,VALID,290.526,VALID,26.1355,VALID,172,VALID,0.766797,
2010-10-21, 01:56:04,VALID,1007.31,VALID,0,VALID,100.526,VALID,292.437,VALID,26.157,VALID,171,VALID,1.00234,
2010-10-21, 01:57:04,VALID,1007.33,VALID,0,VALID,101.685,VALID,290.124,VALID,26.1959,VALID,195,VALID,1.05,
2010-10-21, 01:58:04,VALID,1007.36,VALID,0,VALID,96.5206,VALID,289.219,VALID,26.1765,VALID,169,VALID,0.559766,
2010-10-21, 01:59:04,VALID,1007.36,VALID,0,VALID,99.8163,VALID,295.856,VALID,26.194,VALID,130,VALID,1.2875,
2010-10-21, 02:00:04,VALID,1007.36,VALID,0,VALID,92.6299,VALID,301.588,VALID,26.1959,VALID,116,VALID,0.732422,
2010-10-21, 02:01:04,VALID,1007.35,VALID,0,VALID,93.3622,VALID,303.398,VALID,26.2349,VALID,148,VALID,0.819922,
2010-10-21, 02:02:04,VALID,1007.35,VALID,0,VALID,95.5365,VALID,299.275,VALID,26.2719,VALID,158,VALID,0.74375,
2010-10-21, 02:03:04,VALID,1007.35,VALID,0,VALID,100.457,VALID,302.594,VALID,26.3518,VALID,112,VALID,0.830469,
2010-10-21, 02:04:04,VALID,1007.37,VALID,0,VALID,95.4907,VALID,308.225,VALID,26.3518,VALID,88,VALID,0.844531,
2010-10-21, 02:05:04,VALID,1007.36,VALID,0,VALID,93.0266,VALID,316.673,VALID,26.3713,VALID,89,VALID,0.903125,
2010-10-21, 02:06:04,VALID,1007.36,VALID,0,VALID,91.4092,VALID,318.785,VALID,26.3323,VALID,96,VALID,0.921875,
2010-10-21, 02:07:04,VALID,1007.34,VALID,0,VALID,92.3323,VALID,324.416,VALID,26.3887,VALID,82,VALID,0.809766,
2010-10-21, 02:08:04,VALID,1007.32,VALID,0,VALID,92.8892,VALID,331.858,VALID,26.4492,VALID,78,VALID,0.573828,
2010-10-21, 02:09:04,VALID,1007.31,VALID,0,VALID,93.9649,VALID,340.204,VALID,26.5661,VALID,78,VALID,0.298438,
2010-10-21, 02:10:04,VALID,1007.3,VALID,0,VALID,94.2319,VALID,347.445,VALID,26.7239,VALID,135,VALID,0.658203,
2010-10-21, 02:11:04,VALID,1007.25,VALID,0,VALID,88.4264,VALID,337.892,VALID,26.7024,VALID,138,VALID,1.0832,
2010-10-21, 02:12:04,VALID,1007.24,VALID,0,VALID,85.8325,VALID,323.41,VALID,26.644,VALID,170,VALID,0.953125,
2010-10-21, 02:13:04,VALID,1007.22,VALID,0,VALID,85.6494,VALID,308.225,VALID,26.6245,VALID,161,VALID,0.776953,
2010-10-21, 02:14:04,VALID,1007.22,VALID,0,VALID,85.2985,VALID,291.733,VALID,26.644,VALID,174,VALID,0.379687,
2010-10-21, 02:15:04,VALID,1007.24,VALID,0,VALID,86.7404,VALID,276.246,VALID,26.644,VALID,131,VALID,1.09687,
2010-10-21, 02:16:04,VALID,1007.23,VALID,0,VALID,89.1664,VALID,259.955,VALID,26.6635,VALID,125,VALID,1.18086,
2010-10-21, 02:17:04,VALID,1007.28,VALID,0,VALID,85.9317,VALID,243.664,VALID,26.644,VALID,158,VALID,0.740234,
2010-10-21, 02:18:04,VALID,1007.28,VALID,0,VALID,86.2598,VALID,230.289,VALID,26.644,VALID,126,VALID,1.08477,
2010-10-21, 02:19:04,VALID,1007.3,VALID,0,VALID,86.9082,VALID,217.618,VALID,26.605,VALID,124,VALID,0.714844,
2010-10-21, 02:20:04,VALID,1007.32,VALID,0,VALID,86.1529,VALID,206.657,VALID,26.5855,VALID,124,VALID,1.09336,
2010-10-21, 02:21:04,VALID,1007.33,VALID,0,VALID,86.6336,VALID,198.21,VALID,26.5661,VALID,123,VALID,0.735156,
2010-10-21, 02:22:04,VALID,1007.32,VALID,0,VALID,84.9552,VALID,192.075,VALID,26.5271,VALID,111,VALID,0.720703,
2010-10-21, 02:23:04,VALID,1007.33,VALID,0,VALID,88.2509,VALID,187.751,VALID,26.5681,VALID,124,VALID,0.522266,
2010-10-21, 02:24:04,VALID,1007.31,VALID,0,VALID,87.5795,VALID,184.432,VALID,26.5466,VALID,155,VALID,0.949609,
2010-10-21, 02:25:04,VALID,1007.36,VALID,0,VALID,86.7633,VALID,181.516,VALID,26.5466,VALID,92,VALID,0.578906,
2010-10-21, 02:26:04,VALID,1007.37,VALID,0,VALID,86.9387,VALID,179.103,VALID,26.5661,VALID,63,VALID,0.460156,
2010-10-21, 02:27:04,VALID,1007.41,VALID,0,VALID,87.6329,VALID,177.896,VALID,26.6265,VALID,111,VALID,0.685938,
2010-10-21, 02:28:04,VALID,1007.4,VALID,0,VALID,85.1841,VALID,176.689,VALID,26.5876,VALID,149,VALID,0.595312,
2010-10-21, 02:29:04,VALID,1007.43,VALID,0,VALID,84.9552,VALID,174.778,VALID,26.607,VALID,149,VALID,0.434766,
2010-10-21, 02:30:04,VALID,1007.43,VALID,0,VALID,85.6113,VALID,171.862,VALID,26.605,VALID,149,VALID,0.353125,
2010-10-21, 02:31:04,VALID,1007.46,VALID,0,VALID,84.9934,VALID,170.354,VALID,26.6245,VALID,164,VALID,0.65,
2010-10-21, 02:32:04,VALID,1007.46,VALID,0,VALID,84.3602,VALID,169.65,VALID,26.646,VALID,165,VALID,0.449219,
2010-10-21, 02:33:04,VALID,1007.48,VALID,0,VALID,85.0468,VALID,169.449,VALID,26.646,VALID,204,VALID,0.541016,
2010-10-21, 02:34:04,VALID,1007.49,VALID,0,VALID,85.3367,VALID,170.655,VALID,26.6245,VALID,204,VALID,0,
2010-10-21, 02:35:04,VALID,1007.49,VALID,0,VALID,86.7861,VALID,173.672,VALID,26.7045,VALID,204,VALID,0.153516,
2010-10-21, 02:36:04,VALID,1007.5,VALID,0,VALID,85.5426,VALID,176.79,VALID,26.6635,VALID,205,VALID,0.646875,
2010-10-21, 02:37:04,VALID,1007.5,VALID,0,VALID,88.1899,VALID,178.399,VALID,26.7045,VALID,174,VALID,0.630859,
2010-10-21, 02:38:04,VALID,1007.51,VALID,0,VALID,84.8637,VALID,179.203,VALID,26.6245,VALID,150,VALID,1.08164,
2010-10-21, 02:39:04,VALID,1007.55,VALID,0,VALID,84.6272,VALID,179.203,VALID,26.5835,VALID,161,VALID,0.910156,
2010-10-21, 02:40:04,VALID,1007.56,VALID,0,VALID,88.3577,VALID,178.6,VALID,26.6225,VALID,138,VALID,0.709375,
2010-10-21, 02:41:04,VALID,1007.57,VALID,0,VALID,87.7932,VALID,177.292,VALID,26.642,VALID,148,VALID,0.907031,
2010-10-21, 02:42:04,VALID,1007.59,VALID,0,VALID,86.8395,VALID,175.683,VALID,26.644,VALID,158,VALID,1.17383,
2010-10-21, 02:43:04,VALID,1007.62,VALID,0,VALID,85.9241,VALID,173.572,VALID,26.6245,VALID,150,VALID,0.926562,
2010-10-21, 02:44:04,VALID,1007.65,VALID,0,VALID,86.809,VALID,171.259,VALID,26.605,VALID,150,VALID,0.453906,
2010-10-21, 02:45:04,VALID,1007.63,VALID,0,VALID,86.5573,VALID,169.851,VALID,26.605,VALID,146,VALID,0.783594,
2010-10-21, 02:46:04,VALID,1007.68,VALID,0,VALID,86.5649,VALID,168.443,VALID,26.5855,VALID,145,VALID,0.326562,
2010-10-21, 02:47:04,VALID,1007.67,VALID,0,VALID,86.6793,VALID,167.538,VALID,26.5855,VALID,182,VALID,0.465625,
2010-10-21, 02:48:04,VALID,1007.68,VALID,0,VALID,86.2445,VALID,166.733,VALID,26.5661,VALID,184,VALID,0.45625,
2010-10-21, 02:49:04,VALID,1007.68,VALID,0,VALID,87.2439,VALID,166.331,VALID,26.5271,VALID,184,VALID,0.287891,
2010-10-21, 02:50:04,VALID,1007.67,VALID,0,VALID,87.5338,VALID,165.728,VALID,26.5056,VALID,184,VALID,0.0367187,
2010-10-21, 02:51:04,VALID,1007.73,VALID,0,VALID,88.4798,VALID,164.722,VALID,26.5661,VALID,184,VALID,0,
2010-10-21, 02:52:04,VALID,1007.7,VALID,0,VALID,86.8929,VALID,164.119,VALID,26.605,VALID,184,VALID,0.0847656,
2010-10-21, 02:53:04,VALID,1007.75,VALID,0,VALID,87.9915,VALID,163.314,VALID,26.642,VALID,184,VALID,0.00195313,
2010-10-21, 02:54:04,VALID,1007.75,VALID,0,VALID,87.2591,VALID,162.309,VALID,26.6635,VALID,184,VALID,0,
2010-10-21, 02:55:04,VALID,1007.76,VALID,0,VALID,86.5573,VALID,161.404,VALID,26.644,VALID,184,VALID,0,
2010-10-21, 02:56:04,VALID,1007.74,VALID,0,VALID,88.0754,VALID,161.404,VALID,26.6635,VALID,184,VALID,0.0242187,
2010-10-21, 02:57:04,VALID,1007.76,VALID,0,VALID,89.5173,VALID,163.817,VALID,26.685,VALID,259,VALID,0.6375,
2010-10-21, 02:58:04,VALID,1007.7,VALID,0,VALID,89.8148,VALID,169.046,VALID,26.644,VALID,232,VALID,0.197656,
2010-10-21, 02:59:04,VALID,1007.7,VALID,0,VALID,90.0818,VALID,175.885,VALID,26.642,VALID,256,VALID,0.581641,
2010-10-21, 03:00:04,VALID,1007.69,VALID,0,VALID,90.4175,VALID,183.326,VALID,26.644,VALID,256,VALID,0.195313,
2010-10-21, 03:01:04,VALID,1007.69,VALID,0,VALID,91.5542,VALID,191.271,VALID,26.6635,VALID,256,VALID,0.252734,
2010-10-21, 03:02:04,VALID,1007.66,VALID,0,VALID,89.7538,VALID,195.997,VALID,26.605,VALID,256,VALID,0.228125,
2010-10-21, 03:03:04,VALID,1007.7,VALID,0.5,VALID,88.3501,VALID,198.008,VALID,26.5271,VALID,256,VALID,0.234766,
2010-10-21, 03:04:04,VALID,1007.69,VALID,0,VALID,88.9375,VALID,198.008,VALID,26.5056,VALID,254,VALID,0.278125,
2010-10-21, 03:05:04,VALID,1007.68,VALID,0,VALID,88.4035,VALID,194.79,VALID,26.4687,VALID,254,VALID,0,
2010-10-21, 03:06:04,VALID,1007.7,VALID,0,VALID,89.0672,VALID,188.354,VALID,26.4687,VALID,252,VALID,0.357812,
2010-10-21, 03:07:04,VALID,1007.7,VALID,0,VALID,90.2497,VALID,184.231,VALID,26.4881,VALID,252,VALID,0.181641,
2010-10-21, 03:08:04,VALID,1007.73,VALID,0,VALID,92.6985,VALID,182.622,VALID,26.4881,VALID,252,VALID,0.0417969,
2010-10-21, 03:09:04,VALID,1007.72,VALID,0,VALID,91.5161,VALID,181.315,VALID,26.5291,VALID,252,VALID,0.277734,
2010-10-21, 03:10:04,VALID,1007.75,VALID,0,VALID,90.1886,VALID,182.723,VALID,26.5271,VALID,252,VALID,0.366016,
2010-10-21, 03:11:04,VALID,1007.78,VALID,0,VALID,90.0284,VALID,185.338,VALID,26.5681,VALID,252,VALID,0.164063,
2010-10-21, 03:12:04,VALID,1007.78,VALID,0,VALID,90.4327,VALID,188.455,VALID,26.5876,VALID,254,VALID,0.25625,
2010-10-21, 03:13:04,VALID,1007.77,VALID,0,VALID,90.654,VALID,193.383,VALID,26.6655,VALID,263,VALID,0.375781,
2010-10-21, 03:14:04,VALID,1007.78,VALID,0,VALID,90.6082,VALID,197.807,VALID,26.685,VALID,265,VALID,0.195313,
2010-10-21, 03:15:04,VALID,1007.76,VALID,0,VALID,93.8963,VALID,203.037,VALID,26.7219,VALID,265,VALID,0.05625,
2010-10-21, 03:16:04,VALID,1007.77,VALID,0,VALID,91.5161,VALID,210.177,VALID,26.7239,VALID,278,VALID,0.426953,
2010-10-21, 03:17:04,VALID,1007.76,VALID,0,VALID,90.0589,VALID,220.635,VALID,26.7629,VALID,302,VALID,0.8125,
2010-10-21, 03:18:04,VALID,1007.79,VALID,0,VALID,90.2878,VALID,234.312,VALID,26.7434,VALID,298,VALID,0.272656,
2010-10-21, 03:19:04,VALID,1007.79,VALID,0,VALID,89.3113,VALID,249.899,VALID,26.7629,VALID,295,VALID,0.359766,
2010-10-21, 03:20:04,VALID,1007.73,VALID,0,VALID,87.3812,VALID,266.995,VALID,26.7045,VALID,284,VALID,0.8,
2010-10-21, 03:21:04,VALID,1007.73,VALID,0,VALID,90.2878,VALID,288.213,VALID,26.7434,VALID,328,VALID,0.479297,
2010-10-21, 03:22:04,VALID,1007.73,VALID,0,VALID,86.7556,VALID,311.645,VALID,26.685,VALID,303,VALID,1.17109,
2010-10-21, 03:23:04,VALID,1007.71,VALID,0,VALID,87.9305,VALID,334.271,VALID,26.646,VALID,300,VALID,1.32266,
2010-10-21, 03:24:04,VALID,1007.7,VALID,0,VALID,88.434,VALID,360.518,VALID,26.5855,VALID,285,VALID,1.3375,
2010-10-21, 03:25:04,VALID,1007.69,VALID,0,VALID,89.5554,VALID,386.665,VALID,26.5855,VALID,300,VALID,1.04453,
2010-10-21, 03:26:04,VALID,1007.69,VALID,0,VALID,88.6628,VALID,417.437,VALID,26.646,VALID,289,VALID,1.23203,
2010-10-21, 03:27:04,VALID,1007.71,VALID,0,VALID,87.6253,VALID,432.521,VALID,26.644,VALID,277,VALID,1.33555,
2010-10-21, 03:28:04,VALID,1007.73,VALID,0,VALID,87.8313,VALID,438.555,VALID,26.685,VALID,293,VALID,0.834375,
2010-10-21, 03:29:04,VALID,1007.75,VALID,0,VALID,87.0226,VALID,440.969,VALID,26.685,VALID,290,VALID,1.07305,
2010-10-21, 03:30:04,VALID,1007.76,VALID,0,VALID,85.9165,VALID,435.739,VALID,26.7045,VALID,16,VALID,0.595703,
2010-10-21, 03:31:04,VALID,1007.78,VALID,0.5,VALID,88.9756,VALID,429.705,VALID,26.7434,VALID,357,VALID,0.903906,